This demonstration page uses our WeatherBlox Daily Observations layout. Learn more.

Hourly Observations for February 18, 2018

Temp ( °F °C ) Dew Point ( °F °C ) Humidity (%) Winds ( mph kmh ) Pressure ( in mb ) Visibility ( mi km ) Precip ( " mm )
12:15 am 00:15 Clear 32 -0.1 22 -5.6 67 67 SSE 14 22 30.03 1017 10 16.0934 0 0
12:35 am 00:35 Clear 33 0.4 21 -6.1 62 62 S 13 20 30 1016 10 16.0934 0 0
12:55 am 00:55 Clear 34 1.2 20 -6.5 57 57 S 15 24 30 1016 10 16.0934 0 0
1:15 am 01:15 Clear 35 1.6 20 -6.8 54 54 S 18 30 29.94 1014 10 16.0934 0 0
1:35 am 01:35 Clear 37 2.8 19 -7 49 49 S 21 33 29.94 1014 10 16.0934 0 0
1:55 am 01:55 Clear 38 3.2 19 -7.5 46 46 S 23 37 29.91 1013 10 16.0934 0 0
2:15 am 02:15 Clear 37 2.5 19 -7.2 49 49 S 21 33 29.91 1013 10 16.0934 0 0
2:35 am 02:35 Clear 36 2.2 19 -7.1 51 51 S 17 28 29.88 1012 10 16.0934 0 0
2:55 am 02:55 Clear 36 2.2 19 -7.1 51 51 S 21 33 29.88 1012 10 16.0934 0 0
3:15 am 03:15 Clear 37 2.5 19 -7.3 49 49 S 18 30 29.85 1011 10 16.0934 0 0
3:35 am 03:35 Clear 36 2.2 19 -7.2 50 50 S 16 26 29.85 1011 10 16.0934 0 0
3:55 am 03:55 Clear 37 2.7 20 -6.8 50 50 S 20 31 29.85 1011 10 16.0934 0 0
4:15 am 04:15 Clear 37 3 20 -6.5 50 50 S 17 28 29.85 1011 10 16.0934 0 0
4:35 am 04:35 Clear 37 3 21 -6.1 52 52 S 16 26 29.85 1011 10 16.0934 0 0
4:55 am 04:55 Clear 38 3.2 22 -5.8 52 52 S 18 30 29.83 1010 10 16.0934 0 0
5:15 am 05:15 Clear 38 3.1 22 -5.6 53 53 S 18 30 29.83 1010 10 16.0934 0 0
5:35 am 05:35 Clear 38 3.1 22 -5.5 54 54 S 22 35 29.8 1009 10 16.0934 0 0
5:55 am 05:55 Clear 39 3.9 22 -5.5 51 51 S 21 33 29.77 1008 10 16.0934 0 0
6:15 am 06:15 Clear 39 4 23 -5.2 52 52 S 23 37 29.77 1008 10 16.0934 0 0
6:35 am 06:35 Clear 40 4.3 24 -4.7 52 52 S 23 37 29.74 1007 10 16.0934 0 0
6:55 am 06:55 Clear 40 4.5 24 -4.3 53 53 S 23 37 29.74 1007 10 16.0934 0 0
7:15 am 07:15 Clear 40 4.2 25 -4 56 56 S 21 33 29.74 1007 10 16.0934 0 0
7:35 am 07:35 Sunny 40 4.4 25 -3.7 56 56 S 21 33 29.74 1007 10 16.0934 0 0
7:55 am 07:55 Sunny 40 4.6 26 -3.5 56 56 S 21 33 29.71 1006 10 16.0934 0 0
8:15 am 08:15 Sunny 41 5 26 -3.3 55 55 S 21 33 29.71 1006 10 16.0934 0 0
8:35 am 08:35 Sunny 42 5.3 26 -3.3 54 54 S 16 26 29.71 1006 10 16.0934 0 0
8:55 am 08:55 Sunny 43 5.9 26 -3.5 51 51 S 15 24 29.71 1006 10 16.0934 0 0
9:15 am 09:15 Sunny 44 6.8 26 -3.3 49 49 S 15 24 29.68 1005 10 16.0934 0 0
9:35 am 09:35 Sunny 46 7.8 26 -3.1 46 46 S 22 35 29.68 1005 10 16.0934 0 0
9:55 am 09:55 Sunny 47 8.1 27 -2.6 47 47 S 20 31 29.65 1004 10 16.0934 0 0
10:15 am 10:15 Sunny 47 8.3 28 -2.3 48 48 S 23 37 29.65 1004 10 16.0934 0 0
10:35 am 10:35 Sunny 47 8.6 28 -2.2 47 47 S 21 33 29.65 1004 10 16.0934 0 0
10:55 am 10:55 Sunny 49 9.3 29 -1.8 46 46 SSW 20 31 29.62 1003 10 16.0934 0 0
11:15 am 11:15 Sunny 48 9.1 29 -1.8 47 47 S 20 31 29.62 1003 10 16.0934 0 0
11:35 am 11:35 Sunny 49 9.3 29 -1.6 47 47 SSW 22 35 29.59 1002 10 16.0934 0 0
11:55 am 11:55 Sunny 50 9.9 30 -1.3 46 46 SSW 24 39 29.59 1002 10 16.0934 0 0
12:15 pm 12:15 Sunny 51 10.8 30 -1.3 43 43 SSW 23 37 29.56 1001 10 16.0934 0 0
12:35 pm 12:35 Sunny 52 11 29 -1.4 42 42 SSW 25 41 29.53 1000 10 16.0934 0 0
12:55 pm 12:55 Sunny 52 11.3 30 -1.1 42 42 SSW 26 43 29.53 1000 10 16.0934 0 0
1:15 pm 13:15 Sunny 53 11.7 31 -0.7 43 43 SSW 18 30 29.5 999 10 16.0934 0 0
1:35 pm 13:35 Sunny 55 12.7 32 -0.1 42 42 SSW 18 30 29.5 999 10 16.0934 0 0
1:55 pm 13:55 Sunny 56 13.5 32 -0.2 39 39 SSW 18 30 29.47 998 10 16.0934 0 0
2:15 pm 14:15 Sunny 57 13.8 32 0 39 39 SSW 22 35 29.44 997 10 16.0934 0 0
2:35 pm 14:35 Sunny 58 14.6 32 0.2 38 38 SSW 25 41 29.41 996 10 16.0934 0 0
2:55 pm 14:55 Sunny 59 15 32 0.1 36 36 SSW 21 33 29.41 996 10 16.0934 0 0
3:15 pm 15:15 Sunny 60 15.6 32 0.2 35 35 S 18 30 29.41 996 10 16.0934 0 0
3:35 pm 15:35 Sunny 61 16 32 0 34 34 S 18 30 29.38 995 10 16.0934 0 0
3:55 pm 15:55 Sunny 62 16.5 32 0 33 33 SSW 15 24 29.38 995 10 16.0934 0 0
4:15 pm 16:15 Sunny 63 17 32 0 32 32 SSW 15 24 29.41 996 10 16.0934 0 0
4:35 pm 16:35 Sunny 63 17.4 32 0 31 31 SW 9 15 29.41 996 10 16.0934 0 0
4:55 pm 16:55 Sunny 64 17.6 33 0.5 32 32 SW 5 7 29.41 996 10 16.0934 0 0
5:15 pm 17:15 Sunny 62 16.8 33 0.7 34 34 SW 5 7 29.41 996 10 16.0934 0 0
5:35 pm 17:35 Sunny 62 16.4 33 0.5 34 34 N 3 6 29.41 996 10 16.0934 0 0
5:55 pm 17:55 Sunny 52 11.3 33 0.5 48 48 NNE 6 9 29.44 997 10 16.0934 0 0
6:15 pm 18:15 Sunny 49 9.3 33 0.7 55 55 NNE 12 19 29.47 998 10 16.0934 0 0
6:35 pm 18:35 Clear 48 8.7 34 1.2 60 60 N 18 30 29.5 999 10 16.0934 0 0
6:55 pm 18:55 Clear 45 7.1 34 1 65 65 NNE 18 30 29.53 1000 10 16.0934 0 0
7:15 pm 19:15 Clear 43 6.1 33 0.6 68 68 N 18 30 29.56 1001 10 16.0934 0 0
7:35 pm 19:35 Clear 38 3.6 31 -0.5 75 75 NNE 25 41 29.59 1002 10 16.0934 0 0
7:55 pm 19:55 Clear 37 2.6 30 -1 77 77 NNE 22 35 29.59 1002 10 16.0934 0 0
8:15 pm 20:15 Clear 35 1.4 29 -1.6 81 81 NNE 21 33 29.65 1004 10 16.0934 0 0
8:35 pm 20:35 Clear 32 0.2 28 -2.2 84 84 NNE 23 37 29.65 1004 10 16.0934 0 0
8:55 pm 20:55 Partly Cloudy 31 -0.5 28 -2.5 87 87 NNE 23 37 29.65 1004 10 16.0934 0 0
9:15 pm 21:15 Cloudy 30 -1 28 -2.5 90 90 NNE 25 41 29.71 1006 10 16.0934 0 0
9:35 pm 21:35 Cloudy 30 -1.1 28 -2.5 90 90 NNE 25 41 29.71 1006 10 16.0934 0 0
9:55 pm 21:55 Cloudy 30 -1.3 27 -2.6 91 91 NNE 24 39 29.71 1006 10 16.0934 0 0
10:15 pm 22:15 Cloudy 29 -1.5 27 -2.8 91 91 NNE 28 44 29.71 1006 10 16.0934 0 0
10:35 pm 22:35 Cloudy 29 -1.5 27 -2.8 91 91 NNE 25 41 29.71 1006 10 16.0934 0 0
10:55 pm 22:55 Cloudy 29 -1.5 27 -3 90 90 NNE 29 46 29.71 1006 10 16.0934 0 0
11:15 pm 23:15 Cloudy 28 -2 26 -3.1 92 92 NNE 24 39 29.71 1006 10 16.0934 0 0
11:35 pm 23:35 Cloudy 28 -2.5 26 -3.5 93 93 N 28 44 29.71 1006 10 16.0934 0 0
11:55 pm 23:55 Cloudy 26 -3.2 25 -4.1 94 94 N 30 48 29.74 1007 10 16.0934 0 0

Powered by AerisWeather